Find SES-10

NORAD ID: 42432 Int'l Des: 2017-017 Owner: SESSL Country: UK operational
HEOCIRCULARGSOGEO

Current View

Loading 3D Globe...

About SES-10

SES-10 (NORAD 42432) is a satellite launched Mar 30, 2017 by SESSL of UK. It operates in HEO, CIRCULAR, GSO, GEO orbit with a mass of 5300.00 kg.

Upcoming Passes

Passes for default location (London). Set your location on the main map for personalized predictions.

Altitude History

Loading altitude history...

Two-Line Element Set

1 42432U 17017A 26167.74294365 -.00000275 00000-0 00000+0 0 9997
2 42432 0.0217 36.2987 0002579 54.5268 14.7393 1.00268846 33755
Epoch: Jun 16, 2026 • Age: 19 hours

Current Status

Altitude 35782.0 km
Velocity 3.08 km/s
Sub-Earth Point 0.00°N, 66.93°W
Launch Date Mar 30, 2017
Age 9.2 years
Type communications

Technical Details

Classification Payload
Mass 5300.00 kg
Dry Mass 3000.00 kg
Total Mass 5300.00 kg
Length 7.00 m
Diameter 3.30 m
Span 35.00 m
Shape Box + 2 pan
Manufacturer ADSB
Bus Type Eurostar 3000
Phase Status In Orbit
Owner/State SESSL/UK

Most Searched